Location: Carabito
(9.8355°N, 67.9249°W)
Time: 20:13:00
(UTC+00:00)

Resurs 01 Rocket - Pass Details

Date: 23 May 2024
Orbit: 629 x 641 km, 97.8° (Epoch: 22 June)

Event Time Altitude Azimuth Distance (km) Brightness Sun altitude
Exits shadow 00:08:07 19° 55° (NE) 1,542 3.3 -19.2°
Drops below altitude 10° 00:10:14 10° 29° (NNE) 2,026 4.2 -19.6°
Sets 00:12:53 0° 12° (NNE) 2,934 5.2 -20.2°
